Volver al catálogo

COSMOS 952 DEB

ActivoLEO
NORAD 44567·DEBRIS·🇷🇺 Russia

Lanzado Sep 16, 1977 desde Baikonur Cosmodrome

Loading…

Próximos Pases (próximas 24 horas)

TLE

ActualizadoSource: Space-Track

Época: Sep 14, 2026, 16:47 UTC

1 44567U 77088D   26257.69951207  .00000076  00000-0  14320-3 0  9993
2 44567  64.9331 240.8613 0051303 333.4733 201.5553 13.85717561648054

Sigue COSMOS 952 DEB en tiempo real con AllMySat

Download on the App Store